Location: Sternwarte_Laufen
(47.9344°N, 12.9346°E)
Time: 05:02:25
(UTC+02:00)

ISS - Pass Details

Date: 19 May 2017
Orbit: 402 x 409 km, 51.6° (Epoch: 23 May)

Event Time Altitude Azimuth Distance (km) Brightness Sun altitude
Rises 04:40:19 0° 290° (WNW) 2,329 -0.3 -6.9°
Reaches altitude 10° 04:42:26 10° 295° (WNW) 1,466 -1.2 -6.6°
Maximum altitude 04:45:41 55° 15° (NNE) 491 -3.0 -6.2°
Drops below altitude 10° 04:48:54 10° 94° (E) 1,458 -0.2 -5.8°
Sets 04:51:00 0° 99° (E) 2,315 0.7 -5.5°
